COSMOS 1275 DEB, 42228

Orbit data source: Space-Track

COSMOS 1275 DEB, 42228 is space debris in LEO originally from a launch on Thu, 04 Jun 1981 UTC launched from the Plesetsk Missile And Space Complex (PKMTR). Debris objects in space refer to the collection of defunct objects orbiting the Earth. Examples of debris include non-operational satellites, rocket bodies, and fragments generated from explosions, collisions, or faulty payload assembly.

Loading next visibility...
COSMOS 1275 DEB details
Identifier
42228, 1981-053UU
Orbit
LEO
Last TLE update1 day ago
Origin
Flag of CISGUKOS (CIS)
ManufacturerUnknown
MissionSpacecraft
Bus & MotorUnknown
MassUnknown
Launch date (UTC)
1981-06-04 (44 years ago)
Launch vehicleUnknown
Launch site
Plesetsk Missile And Space Complex (PKMTR)
Object type
Payload
Rocket body
Debris
Shape & HBRUnknown
Radar Cross SectionSmall (<0.1 m²)

Expand to show TLE details & history

TLE from 1 day ago
0 COSMOS 1275 DEB
1 42228U 81053UU  24338.05637076  .00001175  00000-0  10733-2 0  9999
2 42228  82.9352 244.7198 0039622 150.9012 209.4368 13.82006259  4219
Epoch: 2024-12-03T01:21Z
Definitive object data (Epoch: 2024-12-03T01:21:10.433Z)
Latitude-0.00004°
Longitude152.05497°
Altitude985.032 km
Speed7.346 km/s
True Right ascension16h 18m 52s
True Declination0° 00' 00"
Sunlit
Object was in daylight at TLE epoch
Visualization TLE readout
Latitude-57.01722°
Longitude140.13452°
Altitude1,005.238 km
Speed7.335 km/s
Apparent Right ascension17h 01m 29s
Apparent Declination-50° 44' 58"
Sunlit
Object is in daylight
Visualization observer readout
Local Sidereal Time06:15:04
Azimuth136.265° SSE
Elevation-73.211°
Doppler factor1
Orbital elements
Apogee altitude982.97 km
Perigee altitude924.868 km
Semi-major axis7,332.056 km
Eccentricity0.0039622
Inclination82.9352°
RAAN244.7198°
Arg. of periapsis150.9012°
True anomaly209.21462°
Mean anomaly209.4368°
Eccentric anomaly209.32561°
Mean motion3.45704 °/min
BSTAR0.0010733
Orbital period104.14 mins
Loading maneuver chart data...
Loading historical data...
Loading historical data...
Loading historical data...
Loading historical data...
Loading historical data...
Loading historical data...
Loading historical data...

COSMOS 1275 DEB Visibility forecast

Observer location: undefined°, undefined

Span
Click to sort rows by Start time (UTC) header in descending order
Start Az.
Max El. time (UTC)
Max El. Az.
Max El.
End time (UTC)
End Az.
8 mins2024-12-04 17:26:58.360Z128.262° SE2024-12-04 17:30:58.360Z80.912° E21.795°2024-12-04 17:34:58.360Z37.212° NE
10 mins2024-12-04 19:10:58.360Z213.801° SW2024-12-04 19:14:58.360Z271.956° WNW36.683°2024-12-04 19:20:58.360Z355.166° N
6 mins2024-12-05 04:20:58.360Z36.922° NE2024-12-05 04:23:58.360Z71.034° E16.839°2024-12-05 04:26:58.360Z104.068° ESE
10 mins2024-12-05 06:04:58.360Z343.222° N2024-12-05 06:08:58.360Z284.216° WNW41.66°2024-12-05 06:14:58.360Z187.39° SSW
|